QPF
0.01 0.01 0.01 0.02 0.01 0.00 0.01 0.01 0.01 0.01 0.03 0.04 0.02 0.01 0.01 0.02 0.03 0.02 0.01 0.03 0.03 0.02 0.03 0.04 0.07 0.06 0.04 0.04 0.05 0.07 0.06 0.03 0.03 0.05 0.06 0.05 0.08 0.08 0.10 0.12 0.09 0.07 0.09 0.09 0.08 0.08 0.10 0.10 0.08
0.00 0.01 0.01 0.01 0.00 0.01 0.01 0.01 0.01 0.02 0.03 0.03 0.02 0.01 0.01 0.02 0.04 0.04 0.02 0.02 0.01 0.01 0.01 0.02 0.04 0.03 0.02 0.01 0.02 0.04 0.06 0.05 0.03 0.03 0.03 0.03 0.05 0.08 0.08 0.07 0.06 0.05 0.05 0.07 0.08 0.09 0.10 0.10 0.09
0.01 0.01 0.01 0.00 0.00 0.00 0.01 0.01 0.03 0.03 0.03 0.02 0.02 0.01 0.01 0.02 0.03 0.05 0.02 0.02 0.01 0.01 0.01 0.02 0.04 0.03 0.02 0.02 0.02 0.02 0.05 0.07 0.03 0.03 0.04 0.04 0.06 0.07 0.09 0.08 0.06 0.06 0.05 0.05 0.07 0.09 0.08 0.08 0.08
0.02 0.01 0.01 0.00 0.00 0.00 0.00 0.01 0.03 0.02 0.01 0.00 0.01 0.01 0.02 0.03 0.03 0.04 0.02 0.01 0.01 0.01 0.02 0.02 0.03 0.02 0.02 0.01 0.01 0.02 0.04 0.04 0.03 0.03 0.03 0.04 0.07 0.08 0.08 0.08 0.07 0.04 0.04 0.04 0.06 0.09 0.08 0.07 0.08
0.02 0.01 0.00 0.00 0.01 0.01 0.01 0.00 0.01 0.00 0.00 0.00 0.01 0.01 0.01 0.03 0.03 0.02 0.01 0.01 0.00 0.01 0.01 0.03 0.03 0.02 0.01 0.01 0.02 0.02 0.02 0.02 0.02 0.02 0.03 0.04 0.06 0.05 0.06 0.06 0.06 0.05 0.05 0.06 0.09 0.09 0.08 0.08 0.06
0.01 0.01 0.00 0.00 0.01 0.01 0.01 0.00 0.00 0.00 0.01 0.01 0.01 0.01 0.01 0.02 0.03 0.02 0.01 0.01 0.01 0.01 0.01 0.03 0.03 0.02 0.02 0.02 0.02 0.02 0.02 0.02 0.01 0.02 0.03 0.05 0.04 0.03 0.04 0.06 0.06 0.06 0.05 0.06 0.09 0.08 0.08 0.09 0.08
0.02 0.01 0.01 0.01 0.01 0.01 0.01 0.00 0.00 0.00 0.01 0.01 0.01 0.01 0.01 0.03 0.03 0.02 0.01 0.01 0.01 0.01 0.01 0.02 0.01 0.01 0.02 0.02 0.01 0.01 0.02 0.02 0.02 0.02 0.03 0.04 0.04 0.04 0.05 0.08 0.08 0.08 0.08 0.08 0.08 0.09 0.10 0.10 0.09
0.02 0.01 0.01 0.03 0.01 0.01 0.00 0.00 0.01 0.01 0.01 0.01 0.00 0.01 0.02 0.02 0.02 0.02 0.01 0.01 0.01 0.01 0.01 0.01 0.00 0.01 0.01 0.00 0.02 0.02 0.03 0.03 0.03 0.04 0.04 0.04 0.03 0.03 0.05 0.16 0.20 0.19 0.19 0.16 0.13 0.14 0.16 0.14 0.09
0.02 0.01 0.01 0.02 0.01 0.01 0.01 0.00 0.00 0.00 0.01 0.01 0.01 0.01 0.02 0.02 0.02 0.02 0.02 0.01 0.01 0.01 0.01 0.00 0.00 0.01 0.01 0.01 0.01 0.02 0.02 0.02 0.02 0.03 0.03 0.03 0.04 0.04 0.02 0.08 0.17 0.17 0.21 0.22 0.21 0.19 0.21 0.14 0.08
0.01 0.00 0.01 0.01 0.01 0.00 0.00 0.00 0.01 0.01 0.01 0.01 0.01 0.01 0.01 0.02 0.02 0.01 0.01 0.01 0.00 0.00 0.00 0.00 0.01 0.01 0.01 0.00 0.00 0.00 0.00 0.01 0.00 0.01 0.01 0.01 0.01 0.02 0.01 0.02 0.05 0.06 0.12 0.19 0.24 0.22 0.17 0.09 0.05
0.00 0.01 0.01 0.01 0.00 0.00 0.01 0.00 0.01 0.01 0.00 0.01 0.01 0.01 0.01 0.02 0.01 0.01 0.00 0.00 0.00 0.00 0.00 0.00 0.00 0.00 0.00 0.00 0.00 0.00 0.00 0.00 0.00 0.00 0.00 0.00 0.01 0.01 0.01 0.01 0.01 0.03 0.07 0.10 0.15 0.14 0.09 0.07 0.05
0.01 0.01 0.01 0.01 0.01 0.01 0.01 0.01 0.01 0.01 0.01 0.01 0.02 0.01 0.01 0.01 0.01 0.01 0.01 0.01 0.01 0.00 0.00 0.00 0.00 0.00 0.00 0.00 0.00 0.00 0.00 0.00 0.00 0.00 0.00 0.00 0.00 0.00 0.00 0.00 0.00 0.01 0.04 0.06 0.10 0.12 0.12 0.09 0.07
0.01 0.01 0.01 0.01 0.01 0.01 0.01 0.01 0.01 0.01 0.01 0.02 0.02 0.02 0.02 0.02 0.02 0.01 0.02 0.02 0.02 0.02 0.00 0.00 0.00 0.00 0.00 0.00 0.00 0.00 0.00 0.00 0.00 0.00 0.00 0.00 0.00 0.00 0.00 0.00 0.00 0.00 0.01 0.03 0.06 0.09 0.12 0.09 0.07
0.01 0.01 0.01 0.01 0.01 0.01 0.01 0.00 0.00 0.00 0.01 0.01 0.01 0.02 0.02 0.03 0.02 0.02 0.02 0.03 0.03 0.02 0.02 0.01 0.00 0.00 0.00 0.00 0.00 0.00 0.00 0.00 0.00 0.00 0.00 0.00 0.00 0.00 0.00 0.00 0.00 0.00 0.01 0.01 0.03 0.05 0.08 0.06 0.06
0.01 0.01 0.01 0.01 0.01 0.01 0.01 0.00 0.00 0.00 0.01 0.01 0.01 0.01 0.01 0.02 0.02 0.02 0.03 0.04 0.03 0.02 0.01 0.01 0.00 0.00 0.00 0.00 0.00 0.00 0.00 0.00 0.00 0.00 0.00 0.00 0.00 0.00 0.00 0.00 0.00 0.00 0.00 0.01 0.02 0.02 0.03 0.03 0.03
0.02 0.02 0.01 0.02 0.01 0.02 0.01 0.01 0.00 0.00 0.00 0.01 0.02 0.03 0.02 0.02 0.03 0.03 0.04 0.04 0.04 0.03 0.01 0.01 0.01 0.01 0.01 0.00 0.01 0.01 0.00 0.00 0.00 0.00 0.00 0.00 0.00 0.00 0.00 0.00 0.00 0.00 0.00 0.01 0.02 0.02 0.02 0.01 0.02
0.02 0.01 0.01 0.01 0.01 0.01 0.00 0.00 0.00 0.00 0.00 0.01 0.02 0.03 0.03 0.02 0.03 0.02 0.03 0.04 0.04 0.03 0.02 0.01 0.01 0.01 0.01 0.00 0.00 0.00 0.00 0.00 0.00 0.00 0.00 0.00 0.00 0.00 0.00 0.00 0.00 0.00 0.00 0.00 0.01 0.01 0.00 0.00 0.01
0.01 0.01 0.01 0.02 0.01 0.01 0.00 0.00 0.01 0.00 0.00 0.01 0.01 0.01 0.01 0.02 0.02 0.02 0.02 0.03 0.04 0.04 0.04 0.03 0.01 0.01 0.00 0.00 0.00 0.00 0.00 0.00 0.00 0.00 0.00 0.00 0.00 0.00 0.00 0.00 0.00 0.00 0.00 0.00 0.01 0.01 0.01 0.01 0.00
0.01 0.01 0.01 0.01 0.00 0.00 0.00 0.00 0.00 0.00 0.00 0.00 0.01 0.01 0.02 0.02 0.02 0.02 0.02 0.02 0.03 0.03 0.03 0.04 0.02 0.01 0.00 0.00 0.00 0.00 0.00 0.00 0.00 0.00 0.00 0.00 0.00 0.00 0.00 0.00 0.00 0.00 0.00 0.00 0.00 0.01 0.01 0.00 0.00
0.01 0.01 0.01 0.01 0.01 0.01 0.00 0.00 0.00 0.00 0.00 0.00 0.01 0.01 0.03 0.02 0.02 0.02 0.02 0.02 0.03 0.04 0.04 0.05 0.04 0.01 0.00 0.00 0.00 0.00 0.00 0.00 0.00 0.00 0.00 0.00 0.00 0.00 0.00 0.00 0.00 0.00 0.00 0.00 0.00 0.00 0.00 0.00 0.00
0.01 0.01 0.01 0.01 0.01 0.01 0.01 0.00 0.00 0.00 0.00 0.00 0.00 0.01 0.02 0.02 0.02 0.02 0.01 0.02 0.03 0.04 0.04 0.04 0.04 0.02 0.01 0.01 0.00 0.00 0.00 0.00 0.00 0.00 0.00 0.00 0.00 0.00 0.00 0.00 0.00 0.00 0.00 0.00 0.00 0.00 0.00 0.00 0.00
0.01 0.01 0.01 0.01 0.02 0.02 0.02 0.01 0.00 0.00 0.00 0.00 0.00 0.00 0.01 0.01 0.01 0.00 0.01 0.01 0.01 0.03 0.03 0.03 0.04 0.03 0.02 0.01 0.00 0.00 0.00 0.00 0.00 0.00 0.00 0.00 0.00 0.00 0.00 0.00 0.00 0.00 0.00 0.00 0.00 0.00 0.00 0.00 0.00
0.01 0.00 0.01 0.01 0.01 0.01 0.02 0.01 0.01 0.00 0.00 0.00 0.00 0.00 0.00 0.00 0.00 0.00 0.00 0.01 0.01 0.02 0.03 0.03 0.03 0.03 0.02 0.01 0.01 0.00 0.01 0.01 0.01 0.01 0.00 0.00 0.00 0.00 0.01 0.01 0.00 0.00 0.00 0.00 0.00 0.00 0.00 0.00 0.00
0.01 0.00 0.01 0.01 0.01 0.01 0.01 0.01 0.01 0.00 0.00 0.00 0.00 0.00 0.00 0.00 0.00 0.00 0.01 0.01 0.00 0.01 0.02 0.04 0.03 0.03 0.03 0.02 0.02 0.01 0.01 0.01 0.01 0.01 0.01 0.01 0.00 0.00 0.01 0.01 0.01 0.00 0.00 0.00 0.00 0.00 0.00 0.00 0.00
0.00 0.01 0.01 0.01 0.00 0.01 0.00 0.00 0.00 0.00 0.00 0.00 0.00 0.00 0.00 0.00 0.00 0.01 0.01 0.00 0.00 0.00 0.01 0.04 0.04 0.03 0.03 0.04 0.03 0.03 0.02 0.02 0.02 0.02 0.01 0.01 0.00 0.00 0.00 0.00 0.00 0.00 0.00 0.00 0.00 0.00 0.00 0.00 0.00
0.00 0.00 0.01 0.00 0.00 0.00 0.00 0.00 0.00 0.00 0.00 0.00 0.00 0.00 0.00 0.00 0.00 0.00 0.00 0.01 0.01 0.01 0.01 0.02 0.04 0.05 0.04 0.04 0.04 0.04 0.03 0.03 0.03 0.02 0.01 0.00 0.00 0.00 0.00 0.00 0.00 0.00 0.00 0.00 0.00 0.00 0.00 0.00 0.00
0.00 0.00 0.00 0.01 0.00 0.00 0.00 0.00 0.00 0.00 0.00 0.00 0.00 0.00 0.00 0.00 0.00 0.00 0.01 0.01 0.01 0.01 0.01 0.01 0.04 0.06 0.07 0.06 0.05 0.07 0.06 0.05 0.04 0.03 0.02 0.01 0.00 0.00 0.00 0.00 0.00 0.00 0.01 0.01 0.00 0.00 0.00 0.00 0.00
0.01 0.01 0.01 0.02 0.01 0.01 0.00 0.00 0.00 0.00 0.00 0.00 0.00 0.00 0.00 0.00 0.00 0.00 0.01 0.01 0.01 0.01 0.01 0.01 0.02 0.03 0.05 0.07 0.08 0.10 0.10 0.08 0.07 0.05 0.03 0.02 0.01 0.00 0.00 0.00 0.01 0.01 0.01 0.00 0.00 0.00 0.00 0.00 0.00
0.01 0.01 0.01 0.02 0.02 0.01 0.00 0.00 0.00 0.00 0.00 0.00 0.00 0.00 0.00 0.00 0.00 0.00 0.00 0.01 0.01 0.01 0.01 0.02 0.02 0.02 0.03 0.05 0.07 0.10 0.10 0.09 0.08 0.08 0.06 0.04 0.02 0.01 0.00 0.00 0.00 0.00 0.01 0.00 0.00 0.00 0.00 0.00 0.00
0.02 0.01 0.01 0.01 0.01 0.02 0.01 0.00 0.00 0.00 0.00 0.00 0.00 0.00 0.00 0.00 0.00 0.01 0.01 0.01 0.01 0.01 0.01 0.01 0.01 0.02 0.02 0.03 0.05 0.06 0.07 0.10 0.08 0.07 0.06 0.05 0.03 0.02 0.01 0.01 0.00 0.00 0.01 0.00 0.00 0.00 0.00 0.00 0.00
MSLP
1008.31 1009.53 1011.00 1012.58 1014.08 1015.34 1016.26 1016.79 1016.95 1016.83 1016.56 1016.24 1015.97 1015.78 1015.67 1015.59 1015.49 1015.29 1014.99 1014.58 1014.09 1013.59 1013.13 1012.76 1012.49 1012.33 1012.24 1012.18 1012.12 1012.03 1011.91 1011.78 1011.67 1011.61 1011.63 1011.74 1011.94 1012.19 1012.48 1012.76 1013.03 1013.25 1013.45 1013.63 1013.80 1013.97 1014.18 1014.40 1014.65
1008.94 1010.35 1011.93 1013.53 1014.95 1016.06 1016.76 1017.04 1016.96 1016.61 1016.15 1015.70 1015.33 1015.09 1014.97 1014.90 1014.82 1014.68 1014.44 1014.10 1013.71 1013.32 1012.97 1012.71 1012.56 1012.49 1012.48 1012.48 1012.46 1012.41 1012.31 1012.19 1012.08 1012.01 1012.01 1012.09 1012.24 1012.44 1012.66 1012.88 1013.08 1013.26 1013.42 1013.58 1013.74 1013.92 1014.13 1014.38 1014.65
1009.76 1011.29 1012.90 1014.43 1015.70 1016.59 1017.05 1017.08 1016.77 1016.25 1015.66 1015.12 1014.71 1014.46 1014.34 1014.29 1014.23 1014.12 1013.93 1013.66 1013.35 1013.05 1012.80 1012.65 1012.60 1012.62 1012.68 1012.74 1012.77 1012.74 1012.66 1012.56 1012.46 1012.39 1012.37 1012.41 1012.51 1012.64 1012.79 1012.94 1013.08 1013.22 1013.35 1013.50 1013.67 1013.87 1014.11 1014.39 1014.68
1010.70 1012.27 1013.83 1015.21 1016.27 1016.91 1017.12 1016.93 1016.45 1015.81 1015.16 1014.61 1014.22 1014.00 1013.90 1013.87 1013.83 1013.74 1013.57 1013.34 1013.09 1012.87 1012.71 1012.65 1012.67 1012.76 1012.87 1012.97 1013.02 1013.01 1012.96 1012.87 1012.77 1012.71 1012.68 1012.70 1012.75 1012.83 1012.92 1013.00 1013.09 1013.18 1013.30 1013.45 1013.64 1013.88 1014.16 1014.48 1014.81
1011.66 1013.20 1014.63 1015.81 1016.63 1017.02 1016.99 1016.63 1016.04 1015.37 1014.73 1014.24 1013.91 1013.74 1013.69 1013.69 1013.66 1013.58 1013.42 1013.22 1013.01 1012.85 1012.75 1012.75 1012.82 1012.95 1013.08 1013.19 1013.24 1013.23 1013.18 1013.10 1013.02 1012.97 1012.95 1012.96 1012.98 1013.02 1013.06 1013.09 1013.14 1013.21 1013.32 1013.48 1013.70 1013.98 1014.31 1014.66 1015.03
1012.50 1013.95 1015.20 1016.15 1016.72 1016.88 1016.67 1016.20 1015.58 1014.94 1014.39 1014.00 1013.78 1013.70 1013.70 1013.73 1013.71 1013.62 1013.47 1013.29 1013.12 1012.99 1012.94 1012.97 1013.07 1013.20 1013.32 1013.41 1013.43 1013.41 1013.35 1013.28 1013.22 1013.19 1013.19 1013.21 1013.23 1013.25 1013.26 1013.26 1013.28 1013.33 1013.44 1013.62 1013.87 1014.19 1014.55 1014.94 1015.33
1013.13 1014.42 1015.47 1016.18 1016.52 1016.49 1016.17 1015.66 1015.08 1014.54 1014.13 1013.87 1013.78 1013.79 1013.85 1013.90 1013.88 1013.80 1013.65 1013.49 1013.34 1013.25 1013.24 1013.30 1013.40 1013.51 1013.60 1013.64 1013.63 1013.57 1013.50 1013.43 1013.40 1013.40 1013.43 1013.48 1013.52 1013.54 1013.54 1013.53 1013.54 1013.58 1013.69 1013.88 1014.14 1014.48 1014.86 1015.26 1015.66
1013.47 1014.58 1015.41 1015.91 1016.06 1015.90 1015.52 1015.03 1014.54 1014.14 1013.89 1013.79 1013.82 1013.91 1014.02 1014.08 1014.07 1013.98 1013.84 1013.70 1013.59 1013.55 1013.57 1013.65 1013.76 1013.85 1013.89 1013.88 1013.82 1013.73 1013.64 1013.58 1013.57 1013.61 1013.69 1013.78 1013.85 1013.89 1013.90 1013.89 1013.88 1013.92 1014.02 1014.21 1014.48 1014.82 1015.20 1015.59 1015.97
1013.54 1014.46 1015.08 1015.39 1015.39 1015.16 1014.79 1014.37 1014.00 1013.75 1013.65 1013.69 1013.82 1013.97 1014.10 1014.16 1014.14 1014.06 1013.94 1013.84 1013.78 1013.79 1013.87 1013.98 1014.09 1014.16 1014.17 1014.12 1014.01 1013.88 1013.78 1013.73 1013.74 1013.83 1013.95 1014.08 1014.20 1014.27 1014.29 1014.29 1014.28 1014.31 1014.41 1014.58 1014.84 1015.16 1015.52 1015.89 1016.24
1013.40 1014.13 1014.57 1014.73 1014.64 1014.38 1014.04 1013.72 1013.48 1013.38 1013.41 1013.55 1013.74 1013.92 1014.05 1014.09 1014.06 1013.97 1013.88 1013.83 1013.83 1013.91 1014.05 1014.20 1014.33 1014.41 1014.39 1014.31 1014.17 1014.02 1013.91 1013.87 1013.91 1014.03 1014.19 1014.37 1014.52 1014.63 1014.68 1014.69 1014.68 1014.71 1014.80 1014.96 1015.19 1015.49 1015.82 1016.16 1016.47
1013.16 1013.72 1014.01 1014.06 1013.92 1013.67 1013.39 1013.16 1013.04 1013.05 1013.18 1013.37 1013.58 1013.75 1013.85 1013.87 1013.82 1013.74 1013.68 1013.67 1013.74 1013.89 1014.09 1014.30 1014.46 1014.54 1014.53 1014.44 1014.29 1014.14 1014.03 1013.99 1014.05 1014.20 1014.40 1014.61 1014.79 1014.92 1015.00 1015.03 1015.04 1015.08 1015.16 1015.31 1015.53 1015.80 1016.10 1016.40 1016.68
1012.97 1013.38 1013.55 1013.52 1013.35 1013.12 1012.91 1012.77 1012.74 1012.82 1012.99 1013.19 1013.39 1013.52 1013.58 1013.56 1013.49 1013.41 1013.38 1013.42 1013.55 1013.76 1014.02 1014.27 1014.47 1014.58 1014.58 1014.50 1014.36 1014.22 1014.11 1014.09 1014.16 1014.32 1014.53 1014.76 1014.97 1015.12 1015.23 1015.29 1015.33 1015.38 1015.48 1015.63 1015.84 1016.10 1016.38 1016.66 1016.91
1012.93 1013.22 1013.29 1013.21 1013.03 1012.82 1012.66 1012.58 1012.60 1012.71 1012.88 1013.06 1013.21 1013.29 1013.30 1013.24 1013.16 1013.09 1013.08 1013.15 1013.33 1013.58 1013.87 1014.16 1014.38 1014.52 1014.55 1014.49 1014.38 1014.26 1014.18 1014.17 1014.24 1014.40 1014.60 1014.83 1015.05 1015.22 1015.35 1015.45 1015.53 1015.62 1015.74 1015.92 1016.15 1016.41 1016.68 1016.95 1017.19
1013.11 1013.30 1013.29 1013.17 1012.98 1012.79 1012.65 1012.60 1012.63 1012.73 1012.87 1013.00 1013.09 1013.12 1013.09 1013.01 1012.92 1012.86 1012.86 1012.96 1013.15 1013.41 1013.72 1014.01 1014.25 1014.41 1014.47 1014.45 1014.38 1014.29 1014.24 1014.24 1014.31 1014.45 1014.64 1014.85 1015.05 1015.24 1015.39 1015.53 1015.66 1015.80 1015.97 1016.19 1016.44 1016.73 1017.01 1017.29 1017.54
1013.50 1013.60 1013.53 1013.36 1013.16 1012.97 1012.84 1012.78 1012.78 1012.84 1012.92 1012.99 1013.03 1013.01 1012.96 1012.88 1012.80 1012.75 1012.77 1012.88 1013.06 1013.31 1013.59 1013.87 1014.10 1014.27 1014.37 1014.40 1014.38 1014.34 1014.32 1014.33 1014.39 1014.51 1014.66 1014.85 1015.03 1015.22 1015.39 1015.56 1015.74 1015.94 1016.18 1016.44 1016.74 1017.05 1017.37 1017.66 1017.92
1014.04 1014.05 1013.93 1013.73 1013.52 1013.32 1013.16 1013.07 1013.02 1013.00 1013.01 1013.00 1012.98 1012.94 1012.88 1012.81 1012.76 1012.75 1012.79 1012.89 1013.05 1013.26 1013.50 1013.75 1013.97 1014.15 1014.28 1014.36 1014.41 1014.43 1014.44 1014.47 1014.53 1014.62 1014.73 1014.87 1015.03 1015.20 1015.38 1015.59 1015.82 1016.08 1016.37 1016.69 1017.02 1017.37 1017.72 1018.04 1018.32
1014.61 1014.56 1014.40 1014.19 1013.96 1013.75 1013.56 1013.40 1013.27 1013.16 1013.06 1012.97 1012.89 1012.82 1012.77 1012.74 1012.73 1012.76 1012.83 1012.93 1013.07 1013.24 1013.43 1013.64 1013.84 1014.03 1014.21 1014.35 1014.47 1014.56 1014.62 1014.68 1014.73 1014.79 1014.86 1014.95 1015.07 1015.22 1015.41 1015.63 1015.90 1016.20 1016.54 1016.90 1017.28 1017.66 1018.03 1018.37 1018.67
1015.10 1015.02 1014.86 1014.65 1014.44 1014.21 1013.98 1013.75 1013.51 1013.27 1013.05 1012.85 1012.69 1012.59 1012.54 1012.54 1012.59 1012.67 1012.78 1012.89 1013.02 1013.17 1013.32 1013.50 1013.70 1013.91 1014.14 1014.35 1014.55 1014.72 1014.85 1014.93 1014.99 1015.02 1015.05 1015.09 1015.17 1015.29 1015.47 1015.70 1016.00 1016.33 1016.70 1017.09 1017.49 1017.89 1018.27 1018.62 1018.95
1015.43 1015.36 1015.25 1015.09 1014.92 1014.70 1014.43 1014.11 1013.74 1013.34 1012.96 1012.62 1012.35 1012.19 1012.12 1012.15 1012.25 1012.38 1012.54 1012.69 1012.83 1012.97 1013.12 1013.30 1013.51 1013.76 1014.05 1014.35 1014.63 1014.88 1015.07 1015.19 1015.25 1015.27 1015.26 1015.27 1015.31 1015.40 1015.57 1015.80 1016.10 1016.45 1016.84 1017.24 1017.64 1018.04 1018.42 1018.78 1019.12
1015.57 1015.57 1015.55 1015.50 1015.41 1015.22 1014.93 1014.51 1014.00 1013.41 1012.83 1012.30 1011.88 1011.61 1011.49 1011.51 1011.64 1011.84 1012.05 1012.25 1012.44 1012.61 1012.78 1012.99 1013.24 1013.55 1013.91 1014.29 1014.66 1014.99 1015.25 1015.41 1015.49 1015.50 1015.47 1015.44 1015.45 1015.52 1015.68 1015.91 1016.21 1016.56 1016.94 1017.33 1017.73 1018.11 1018.48 1018.84 1019.18
1015.51 1015.64 1015.78 1015.89 1015.92 1015.81 1015.50 1015.00 1014.32 1013.52 1012.70 1011.93 1011.31 1010.89 1010.68 1010.66 1010.80 1011.03 1011.30 1011.57 1011.82 1012.05 1012.29 1012.55 1012.87 1013.26 1013.69 1014.16 1014.61 1015.01 1015.33 1015.53 1015.63 1015.64 1015.60 1015.56 1015.56 1015.62 1015.77 1016.00 1016.30 1016.65 1017.01 1017.39 1017.75 1018.11 1018.46 1018.80 1019.14
1015.29 1015.60 1015.96 1016.28 1016.47 1016.45 1016.15 1015.57 1014.72 1013.70 1012.61 1011.59 1010.73 1010.11 1009.76 1009.66 1009.78 1010.03 1010.36 1010.70 1011.03 1011.35 1011.66 1012.01 1012.41 1012.87 1013.38 1013.93 1014.45 1014.91 1015.27 1015.51 1015.63 1015.65 1015.63 1015.59 1015.59 1015.66 1015.82 1016.06 1016.36 1016.70 1017.06 1017.41 1017.74 1018.06 1018.38 1018.70 1019.03
1014.99 1015.51 1016.11 1016.65 1017.03 1017.11 1016.84 1016.18 1015.18 1013.94 1012.60 1011.31 1010.20 1009.36 1008.85 1008.65 1008.71 1008.96 1009.32 1009.73 1010.14 1010.54 1010.95 1011.38 1011.86 1012.40 1012.98 1013.58 1014.16 1014.67 1015.07 1015.34 1015.49 1015.54 1015.53 1015.52 1015.54 1015.64 1015.82 1016.08 1016.39 1016.73 1017.07 1017.40 1017.70 1017.98 1018.26 1018.56 1018.87
1014.65 1015.39 1016.21 1016.97 1017.52 1017.71 1017.46 1016.75 1015.62 1014.19 1012.63 1011.10 1009.76 1008.72 1008.03 1007.71 1007.70 1007.93 1008.30 1008.75 1009.23 1009.70 1010.19 1010.69 1011.25 1011.85 1012.49 1013.14 1013.76 1014.30 1014.73 1015.03 1015.21 1015.29 1015.32 1015.35 1015.41 1015.55 1015.76 1016.05 1016.38 1016.72 1017.05 1017.36 1017.63 1017.88 1018.13 1018.39 1018.68
1014.33 1015.24 1016.25 1017.17 1017.85 1018.12 1017.90 1017.15 1015.94 1014.38 1012.65 1010.94 1009.42 1008.21 1007.38 1006.95 1006.86 1007.04 1007.41 1007.87 1008.37 1008.89 1009.43 1009.99 1010.59 1011.24 1011.92 1012.60 1013.25 1013.82 1014.28 1014.61 1014.83 1014.95 1015.03 1015.11 1015.22 1015.41 1015.66 1015.97 1016.32 1016.67 1017.00 1017.29 1017.54 1017.76 1017.97 1018.20 1018.46
1014.06 1015.07 1016.17 1017.19 1017.93 1018.25 1018.04 1017.28 1016.03 1014.40 1012.59 1010.79 1009.17 1007.87 1006.95 1006.42 1006.26 1006.39 1006.70 1007.14 1007.64 1008.16 1008.71 1009.29 1009.91 1010.58 1011.28 1011.98 1012.65 1013.25 1013.74 1014.11 1014.37 1014.55 1014.68 1014.81 1014.98 1015.21 1015.51 1015.85 1016.21 1016.57 1016.90 1017.17 1017.40 1017.60 1017.79 1017.99 1018.23
1013.86 1014.87 1015.97 1016.97 1017.71 1018.02 1017.81 1017.06 1015.82 1014.22 1012.43 1010.64 1009.03 1007.70 1006.75 1006.17 1005.95 1006.00 1006.25 1006.62 1007.06 1007.54 1008.05 1008.61 1009.22 1009.88 1010.58 1011.29 1011.98 1012.60 1013.13 1013.55 1013.86 1014.10 1014.29 1014.48 1014.70 1014.97 1015.30 1015.66 1016.04 1016.40 1016.72 1016.99 1017.21 1017.40 1017.57 1017.75 1017.97
1013.73 1014.65 1015.64 1016.55 1017.20 1017.46 1017.23 1016.51 1015.34 1013.84 1012.17 1010.50 1008.98 1007.72 1006.80 1006.21 1005.94 1005.91 1006.06 1006.33 1006.66 1007.04 1007.48 1007.97 1008.53 1009.16 1009.84 1010.55 1011.25 1011.90 1012.47 1012.94 1013.31 1013.61 1013.86 1014.11 1014.37 1014.68 1015.02 1015.40 1015.77 1016.13 1016.46 1016.73 1016.94 1017.13 1017.30 1017.48 1017.69
1013.70 1014.44 1015.24 1015.97 1016.48 1016.65 1016.40 1015.73 1014.68 1013.35 1011.88 1010.41 1009.07 1007.96 1007.11 1006.55 1006.24 1006.12 1006.15 1006.27 1006.46 1006.70 1007.01 1007.39 1007.86 1008.43 1009.08 1009.77 1010.47 1011.15 1011.75 1012.27 1012.70 1013.06 1013.37 1013.66 1013.96 1014.29 1014.65 1015.02 1015.40 1015.76 1016.08 1016.35 1016.58 1016.78 1016.97 1017.16 1017.38
1013.78 1014.29 1014.86 1015.37 1015.70 1015.76 1015.49 1014.89 1014.00 1012.88 1011.66 1010.45 1009.35 1008.42 1007.69 1007.17 1006.82 1006.61 1006.49 1006.44 1006.45 1006.51 1006.65 1006.89 1007.25 1007.73 1008.32 1008.97 1009.66 1010.34 1010.98 1011.54 1012.02 1012.43 1012.79 1013.12 1013.45 1013.79 1014.15 1014.53 1014.90 1015.25 1015.58 1015.87 1016.12 1016.34 1016.56 1016.78 1017.02
Thickness
5785 5785 5781 5768 5744 5722 5719 5728 5735 5737 5740 5747 5750 5747 5741 5736 5733 5731 5751 5759 5761 5761 5762 5763 5764 5764 5764 5765 5765 5765 5766 5766 5766 5767 5767 5767 5767 5768 5768 5769 5769 5770 5770 5770 5770 5771 5771 5771 5771
5784 5782 5772 5753 5725 5708 5716 5731 5733 5739 5745 5749 5749 5746 5741 5739 5746 5747 5752 5758 5759 5760 5760 5761 5761 5762 5762 5762 5763 5763 5763 5763 5764 5764 5764 5764 5765 5765 5765 5766 5766 5766 5766 5767 5767 5767 5767 5768 5768
5783 5778 5757 5736 5720 5712 5721 5734 5737 5744 5749 5749 5744 5744 5741 5740 5747 5749 5754 5757 5758 5758 5758 5759 5759 5759 5759 5759 5760 5760 5760 5761 5761 5761 5761 5762 5762 5762 5763 5763 5764 5764 5764 5764 5764 5764 5764 5765 5765
5776 5762 5748 5729 5721 5726 5732 5738 5741 5742 5746 5748 5743 5738 5743 5750 5751 5754 5756 5756 5755 5756 5756 5757 5757 5757 5757 5757 5757 5757 5757 5758 5758 5758 5758 5758 5759 5759 5760 5761 5761 5761 5761 5761 5761 5761 5761 5761 5761
5768 5748 5729 5718 5723 5732 5738 5743 5744 5741 5740 5742 5741 5734 5737 5749 5755 5755 5755 5754 5753 5753 5754 5754 5754 5754 5754 5754 5754 5754 5754 5755 5755 5755 5755 5755 5756 5756 5757 5758 5758 5758 5758 5758 5757 5757 5757 5757 5757
5751 5738 5716 5711 5721 5732 5739 5745 5744 5740 5739 5741 5739 5733 5735 5748 5751 5752 5753 5752 5752 5752 5752 5752 5752 5751 5751 5751 5751 5751 5751 5752 5752 5752 5751 5752 5752 5753 5753 5754 5755 5755 5754 5754 5754 5754 5754 5753 5753
5743 5728 5716 5717 5719 5728 5739 5745 5741 5737 5737 5739 5741 5732 5735 5743 5749 5751 5750 5750 5749 5749 5749 5748 5748 5748 5748 5748 5748 5748 5748 5748 5748 5748 5748 5748 5748 5749 5750 5750 5751 5751 5751 5750 5750 5750 5749 5749 5749
5749 5730 5719 5717 5719 5726 5740 5745 5745 5741 5739 5746 5744 5732 5731 5742 5748 5748 5747 5746 5746 5746 5745 5745 5745 5745 5745 5745 5745 5745 5745 5744 5744 5744 5744 5744 5744 5744 5745 5745 5746 5746 5746 5746 5746 5746 5745 5744 5744
5752 5723 5713 5720 5722 5729 5741 5740 5744 5748 5743 5743 5744 5742 5745 5748 5746 5743 5741 5740 5741 5742 5742 5742 5742 5742 5742 5742 5741 5741 5741 5740 5740 5740 5740 5740 5739 5740 5740 5741 5741 5741 5741 5741 5741 5741 5740 5740 5739
5740 5717 5724 5734 5735 5735 5739 5739 5739 5738 5734 5735 5738 5742 5746 5744 5741 5738 5736 5735 5736 5737 5739 5740 5740 5739 5739 5739 5738 5738 5737 5737 5736 5736 5736 5735 5735 5735 5736 5736 5736 5736 5736 5736 5735 5735 5735 5734 5734
5740 5728 5735 5739 5742 5741 5738 5738 5740 5733 5727 5732 5734 5737 5740 5739 5737 5736 5735 5735 5736 5737 5737 5738 5737 5737 5736 5736 5735 5734 5734 5733 5733 5732 5732 5732 5731 5731 5731 5731 5730 5731 5730 5730 5729 5729 5729 5729 5729
5738 5738 5740 5741 5745 5741 5737 5737 5734 5732 5734 5742 5742 5741 5739 5736 5734 5734 5734 5734 5735 5735 5735 5736 5736 5735 5734 5733 5732 5731 5731 5730 5729 5728 5728 5728 5727 5727 5726 5726 5726 5726 5725 5725 5725 5724 5724 5724 5724
5736 5737 5742 5743 5742 5740 5737 5733 5732 5732 5739 5742 5741 5738 5735 5734 5734 5734 5735 5734 5734 5733 5734 5734 5734 5733 5732 5731 5730 5729 5728 5727 5726 5726 5725 5725 5724 5723 5722 5722 5721 5721 5721 5720 5720 5720 5719 5718 5718
5738 5737 5737 5738 5738 5738 5732 5730 5730 5730 5737 5735 5734 5732 5732 5732 5733 5732 5732 5732 5732 5732 5732 5733 5732 5732 5730 5728 5727 5726 5726 5725 5724 5723 5723 5722 5721 5720 5719 5718 5717 5717 5717 5716 5716 5715 5714 5713 5713
5739 5730 5728 5731 5733 5733 5730 5720 5724 5731 5732 5729 5728 5729 5729 5730 5731 5731 5732 5732 5732 5732 5732 5731 5731 5730 5728 5726 5725 5724 5723 5722 5722 5721 5720 5720 5719 5717 5716 5714 5713 5713 5712 5712 5711 5710 5710 5709 5708
5729 5718 5710 5723 5728 5729 5721 5707 5723 5729 5727 5724 5724 5724 5725 5727 5729 5731 5732 5732 5732 5731 5730 5730 5730 5728 5726 5724 5723 5722 5721 5720 5719 5718 5718 5717 5716 5714 5713 5711 5710 5709 5709 5708 5706 5705 5703 5702 5701
5709 5702 5704 5714 5724 5723 5715 5708 5721 5726 5724 5720 5720 5720 5721 5723 5726 5728 5730 5731 5731 5730 5729 5727 5727 5725 5723 5722 5720 5719 5718 5717 5716 5716 5715 5714 5713 5712 5710 5708 5706 5705 5704 5703 5702 5699 5698 5696 5695
5699 5700 5702 5704 5716 5716 5709 5707 5717 5721 5720 5718 5718 5718 5718 5720 5723 5727 5728 5729 5729 5729 5727 5726 5724 5723 5721 5719 5717 5715 5714 5713 5713 5712 5712 5711 5709 5708 5706 5704 5703 5702 5700 5698 5696 5694 5693 5691 5690
5707 5702 5699 5704 5716 5710 5705 5705 5712 5716 5716 5714 5714 5715 5716 5720 5725 5726 5726 5727 5726 5725 5724 5723 5721 5720 5718 5716 5713 5711 5709 5709 5708 5708 5708 5707 5706 5705 5703 5701 5699 5698 5695 5693 5692 5690 5688 5685 5685
5705 5698 5697 5703 5713 5707 5700 5701 5710 5713 5714 5715 5715 5715 5717 5719 5720 5722 5723 5723 5723 5722 5722 5721 5719 5718 5717 5716 5713 5711 5708 5706 5705 5704 5704 5703 5702 5701 5700 5697 5695 5693 5691 5689 5687 5686 5682 5680 5679
5700 5696 5697 5697 5702 5703 5698 5695 5703 5710 5713 5715 5717 5717 5718 5719 5719 5719 5719 5720 5720 5719 5719 5720 5717 5716 5715 5714 5711 5708 5705 5703 5701 5700 5699 5699 5698 5697 5696 5694 5692 5690 5688 5685 5683 5682 5679 5675 5673
5692 5705 5702 5697 5687 5680 5689 5673 5693 5701 5705 5710 5713 5713 5715 5718 5720 5719 5719 5718 5718 5718 5718 5717 5715 5714 5712 5711 5709 5706 5702 5698 5698 5697 5696 5695 5694 5693 5692 5690 5688 5686 5684 5682 5680 5678 5676 5673 5668
5699 5705 5699 5693 5683 5675 5678 5670 5681 5694 5697 5705 5710 5712 5715 5717 5718 5719 5719 5719 5718 5717 5716 5714 5713 5711 5710 5708 5706 5703 5700 5698 5696 5694 5693 5692 5691 5690 5688 5687 5685 5683 5680 5678 5676 5674 5672 5669 5666
5703 5694 5685 5676 5670 5661 5673 5666 5672 5686 5696 5703 5709 5711 5713 5715 5716 5717 5717 5716 5715 5714 5713 5711 5709 5707 5706 5705 5703 5701 5698 5695 5693 5691 5689 5687 5686 5685 5684 5683 5681 5679 5677 5674 5672 5670 5667 5664 5662
5692 5674 5656 5654 5647 5652 5670 5666 5673 5695 5702 5705 5707 5709 5712 5712 5712 5712 5712 5711 5711 5710 5709 5708 5706 5704 5703 5702 5700 5698 5696 5694 5691 5689 5686 5684 5682 5681 5681 5680 5678 5676 5673 5671 5669 5666 5663 5660 5658
5681 5673 5652 5643 5641 5648 5662 5660 5679 5699 5704 5706 5708 5708 5709 5708 5708 5709 5709 5708 5707 5707 5706 5705 5703 5701 5700 5698 5697 5695 5694 5691 5689 5687 5685 5682 5681 5680 5678 5676 5674 5672 5670 5667 5664 5661 5658 5656 5653
5674 5666 5669 5651 5647 5644 5651 5663 5681 5697 5698 5700 5701 5702 5703 5704 5704 5705 5705 5704 5704 5703 5702 5701 5700 5698 5697 5695 5694 5692 5690 5688 5686 5684 5682 5680 5678 5677 5675 5673 5671 5668 5666 5663 5660 5656 5654 5651 5648
5678 5667 5652 5646 5636 5634 5646 5655 5665 5683 5688 5692 5692 5694 5696 5698 5699 5700 5700 5700 5700 5700 5699 5698 5696 5694 5693 5692 5689 5688 5686 5685 5683 5681 5678 5676 5675 5674 5671 5669 5667 5664 5662 5659 5656 5652 5649 5645 5642
5665 5660 5651 5642 5641 5632 5633 5650 5678 5680 5685 5685 5687 5690 5691 5693 5694 5695 5695 5696 5695 5694 5694 5692 5691 5689 5688 5687 5685 5684 5682 5681 5679 5677 5675 5673 5671 5670 5668 5666 5663 5660 5657 5655 5651 5647 5644 5641 5638
5669 5661 5650 5641 5637 5633 5632 5648 5682 5682 5683 5683 5683 5686 5688 5689 5689 5690 5689 5689 5688 5688 5687 5686 5686 5685 5684 5682 5681 5679 5677 5676 5674 5673 5671 5670 5668 5666 5664 5661 5659 5656 5653 5650 5647 5643 5640 5637 5634